GW2033 Weather Reports


time (UTC)temp
C
wind
direction
speed
KPH
gust
KPH
rain 1hr
cm
rain 24hr
cm
rain mn
cm
humidity
%
barometer
mb
20260510120532 15 23 6.4 16.1 0.00 0.00 0.00 60 1019.7
20260510120027 15 53 6.4 19.3 0.00 0.00 0.00 61 1019.4
20260510115524 15 29 8.0 12.9 0.00 0.00 0.00 61 1019.4
20260510115021 15 30 8.0 19.3 0.00 0.00 0.00 61 1018.9
20260510114516 15 30 6.4 22.5 0.00 0.00 0.00 62 1018.9
20260510114013 15 19 6.4 20.9 0.00 0.00 0.00 62 1019.0
20260510113508 15 50 11.3 19.3 0.00 0.00 0.00 62 1018.6
20260510113006 15 13 9.7 24.1 0.00 0.00 0.00 62 1018.5
20260510112503 15 21 24.1 27.4 0.00 0.00 0.00 62 1018.3
20260510111959 15 53 14.5 24.1 0.00 0.00 0.00 62 1017.9
20260510111455 15 28 16.1 29.0 0.00 0.00 0.00 63 1017.8
20260510110951 15 28 8.0 32.2 0.00 0.00 0.00 62 1017.7
20260510110448 15 29 8.0 17.7 0.00 0.00 0.00 62 1017.6
20260510105944 15 49 8.0 30.6 0.00 0.00 0.00 63 1017.5
20260510105439 15 24 9.7 27.4 0.00 0.00 0.00 62 1017.6
20260510104934 16 16 12.9 25.7 0.00 0.00 0.00 62 1017.6
20260510104431 16 33 9.7 24.1 0.00 0.00 0.00 62 1017.7
20260510103928 16 34 3.2 19.3 0.00 0.00 0.00 62 1017.5
20260510103426 16 57 4.8 19.3 0.00 0.00 0.00 62 1017.4
20260510102920 16 72 3.2 16.1 0.00 0.00 0.00 62 1017.2
20260510102416 16 11 8.0 24.1 0.00 0.00 0.00 62 1017.3
20260510101914 16 53 6.4 24.1 0.00 0.00 0.00 62 1017.2
20260510101411 16 39 8.0 19.3 0.00 0.00 0.00 62 1017.1
20260510100908 16 30 14.5 30.6 0.00 0.00 0.00 62 1017.2
20260510100400 16 33 6.4 14.5 0.00 0.00 0.00 62 1016.9
20260510095856 16 77 3.2 20.9 0.00 0.00 0.00 62 1016.9
20260510095351 16 62 9.7 25.7 0.00 0.00 0.00 61 1016.9
20260510094851 16 59 4.8 19.3 0.00 0.00 0.00 62 1016.5
20260510094346 16 40 6.4 19.3 0.00 0.00 0.00 62 1016.6
20260510093842 16 53 6.4 25.7 0.00 0.00 0.00 61 1016.4
20260510093338 16 102 4.8 22.5 0.00 0.00 0.00 61 1016.3
20260510092834 16 19 17.7 25.7 0.00 0.00 0.00 61 1016.2
20260510092331 16 84 4.8 16.1 0.00 0.00 0.00 61 1016.3
20260510091827 16 19 8.0 16.1 0.00 0.00 0.00 61 1016.3
20260510091324 16 37 12.9 27.4 0.00 0.00 0.00 61 1016.2
20260510090820 16 44 8.0 24.1 0.00 0.00 0.00 61 1016.4
20260510090317 16 51 11.3 19.3 0.00 0.00 0.00 62 1016.1
20260510085812 16 70 6.4 20.9 0.00 0.00 0.00 63 1016.3
20260510085307 16 32 6.4 19.3 0.00 0.00 0.00 63 1016.2
20260510084803 16 17 11.3 22.5 0.00 0.00 0.00 62 1016.2
20260510084300 16 38 6.4 12.9 0.00 0.00 0.00 63 1016.3
20260510083757 16 32 9.7 16.1 0.00 0.00 0.00 62 1016.1
20260510083254 16 54 4.8 24.1 0.00 0.00 0.00 63 1016.0
20260510082749 16 20 8.0 17.7 0.00 0.00 0.00 63 1016.1
20260510082246 16 153 1.6 17.7 0.00 0.00 0.00 64 1016.1
20260510081745 17 1 9.7 14.5 0.00 0.00 0.00 63 1016.1
20260510081242 17 38 11.3 14.5 0.00 0.00 0.00 63 1015.9
20260510080737 17 16 12.9 19.3 0.00 0.00 0.00 63 1015.9
20260510080232 17 354 11.3 16.1 0.00 0.00 0.00 63 1016.1
20260510075729 17 12 4.8 14.5 0.00 0.00 0.00 63 1015.7
20260510075227 17 23 6.4 11.3 0.00 0.00 0.00 62 1015.7
20260510074724 17 24 6.4 11.3 0.00 0.00 0.00 61 1015.6
20260510074221 17 43 6.4 8.0 0.00 0.00 0.00 61 1015.8
20260510073717 18 41 3.2 8.0 0.00 0.00 0.00 60 1015.7
20260510073212 18 29 1.6 11.3 0.00 0.00 0.00 60 1015.8
20260510072709 18 54 3.2 17.7 0.00 0.00 0.00 60 1015.6
20260510072206 18 20 4.8 11.3 0.00 0.00 0.00 59 1015.7
20260510071702 18 47 4.8 8.0 0.00 0.00 0.00 60 1015.7
20260510071159 18 39 4.8 8.0 0.00 0.00 0.00 60 1015.4
20260510070656 18 41 3.2 9.7 0.00 0.00 0.00 60 1015.4
20260510070154 18 46 4.8 8.0 0.00 0.00 0.00 60 1015.4
20260510065649 18 42 4.8 9.7 0.00 0.00 0.00 59 1015.3
20260510065145 18 30 4.8 11.3 0.00 0.00 0.00 59 1015.2
20260510064642 18 36 4.8 4.8 0.00 0.00 0.00 59 1015.2
20260510064139 18 34 4.8 6.4 0.00 0.00 0.00 59 1015.3
20260510063636 18 53 3.2 4.8 0.00 0.00 0.00 59 1015.3
20260510063133 18 41 4.8 9.7 0.00 0.00 0.00 59 1015.3
20260510062629 19 76 1.6 8.0 0.00 0.00 0.00 58 1015.3
20260510062125 19 45 6.4 9.7 0.00 0.00 0.00 57 1015.2
20260510061620 19 63 6.4 11.3 0.00 0.00 0.00 57 1015.0
20260510061118 19 24 4.8 11.3 0.00 0.00 0.00 57 1015.0
20260510060614 19 26 3.2 14.5 0.00 0.00 0.00 56 1014.6
20260510060111 19 48 4.8 8.0 0.00 0.00 0.00 56 1014.5
20260510055607 19 36 6.4 14.5 0.00 0.00 0.00 56 1014.6
20260510055105 20 28 6.4 11.3 0.00 0.00 0.00 56 1014.2
20260510054600 20 14 6.4 11.3 0.00 0.00 0.00 55 1014.2
20260510054055 20 41 4.8 8.0 0.00 0.00 0.00 55 1014.4
20260510053555 20 41 8.0 11.3 0.00 0.00 0.00 55 1014.0
20260510053052 20 34 8.0 12.9 0.00 0.00 0.00 54 1014.0
20260510052548 20 33 8.0 12.9 0.00 0.00 0.00 54 1014.0
20260510052044 20 14 6.4 16.1 0.00 0.00 0.00 54 1014.2
20260510051540 20 18 6.4 17.7 0.00 0.00 0.00 53 1014.2
20260510051037 20 5 4.8 12.9 0.00 0.00 0.00 53 1013.9
20260510050534 21 20 6.4 11.3 0.00 0.00 0.00 52 1013.9
20260510050031 21 355 8.0 9.7 0.00 0.00 0.00 51 1013.8
20260510045528 21 0 8.0 11.3 0.00 0.00 0.00 51 1013.7
20260510045024 20 24 3.2 6.4 0.00 0.00 0.00 54 1013.6
20260510044521 20 7 4.8 6.4 0.00 0.00 0.00 55 1013.7
20260510044019 20 7 0.0 1.6 0.00 0.00 0.00 54 1013.5
20260510043514 20 155 3.2 8.0 0.00 0.00 0.00 54 1013.8
20260510043010 20 37 0.0 4.8 0.00 0.00 0.00 53 1013.9
20260510042504 20 351 0.0 1.6 0.00 0.00 0.00 56 1014.0
20260510041958 20 64 3.2 4.8 0.00 0.00 0.00 55 1013.8
20260510041456 20 61 1.6 4.8 0.00 0.00 0.00 55 1013.9
20260510040954 20 8 3.2 4.8 0.00 0.00 0.00 56 1014.0
20260510040450 20 346 1.6 3.2 0.00 0.00 0.00 57 1013.9
20260510035946 20 322 0.0 1.6 0.00 0.00 0.00 57 1013.8
20260510035442 20 304 0.0 0.0 0.00 0.00 0.00 55 1013.8
20260510034937 20 269 0.0 0.0 0.00 0.00 0.00 54 1013.8
20260510034436 21 279 0.0 1.6 0.00 0.00 0.00 50 1013.6
20260510033932 21 16 0.0 1.6 0.00 0.00 0.00 48 1013.5
20260510033428 21 132 0.0 4.8 0.00 0.00 0.00 47 1013.4
20260510032925 21 117 0.0 3.2 0.00 0.00 0.00 47 1013.5
20260510032422 22 142 3.2 4.8 0.00 0.00 0.00 45 1013.2
20260510031917 22 149 3.2 4.8 0.00 0.00 0.00 45 1013.1
20260510031412 22 166 3.2 4.8 0.00 0.00 0.00 45 1013.1
20260510030907 22 170 3.2 8.0 0.00 0.00 0.00 45 1013.1
20260510030404 22 146 4.8 4.8 0.00 0.00 0.00 45 1012.8
20260510025901 22 157 1.6 4.8 0.00 0.00 0.00 44 1013.1
20260510025359 22 144 1.6 4.8 0.00 0.00 0.00 47 1013.3
20260510024856 21 158 0.0 6.4 0.00 0.00 0.00 50 1013.3
20260510024352 21 126 0.0 3.2 0.00 0.00 0.00 55 1013.0
20260510023848 21 129 3.2 4.8 0.00 0.00 0.00 55 1013.2
20260510023345 21 66 0.0 1.6 0.00 0.00 0.00 53 1012.9
20260510022842 21 154 0.0 3.2 0.00 0.00 0.00 56 1012.9
20260510022341 21 112 3.2 4.8 0.00 0.00 0.00 54 1013.2
20260510021840 22 124 0.0 3.2 0.00 0.00 0.00 54 1013.3
20260510021339 22 339 1.6 4.8 0.00 0.00 0.00 49 1013.3
20260510020835 22 15 3.2 8.0 0.00 0.00 0.00 46 1013.5
20260510020335 23 32 0.0 3.2 0.00 0.00 0.00 41 1013.2
20260510015831 23 3 4.8 6.4 0.00 0.00 0.00 39 1013.5
20260510015327 24 27 8.0 12.9 0.00 0.00 0.00 37 1013.5
20260510014822 25 349 4.8 8.0 0.00 0.00 0.00 34 1013.6
20260510014320 25 343 6.4 11.3 0.00 0.00 0.00 34 1013.2
20260510013815 25 279 8.0 11.3 0.00 0.00 0.00 37 1013.2
20260510013311 25 294 3.2 4.8 0.00 0.00 0.00 35 1012.7
20260510012806 25 343 0.0 3.2 0.00 0.00 0.00 36 1012.4
20260510012301 25 341 3.2 4.8 0.00 0.00 0.00 35 1012.2
20260510011801 25 235 0.0 4.8 0.00 0.00 0.00 34 1011.9
20260510011257 25 161 3.2 4.8 0.00 0.00 0.00 34 1011.8
20260510010754 25 133 4.8 8.0 0.00 0.00 0.00 33 1011.4
20260510010250 25 155 1.6 9.7 0.00 0.00 0.00 33 1011.0
20260510005747 25 180 0.0 8.0 0.00 0.00 0.00 32 1010.7
20260510005243 25 273 1.6 8.0 0.00 0.00 0.00 32 1010.4
20260510004742 25 160 3.2 9.7 0.00 0.00 0.00 32 1010.3
20260510004239 26 164 0.0 4.8 0.00 0.00 0.00 32 1010.1
20260510003736 26 114 0.0 8.0 0.00 0.00 0.00 32 1009.9
20260510003232 26 160 3.2 14.5 0.00 0.00 0.00 31 1010.0
20260510002731 26 148 3.2 6.4 0.00 0.00 0.00 30 1009.8
20260510002229 26 164 12.9 12.9 0.00 0.00 0.00 29 1009.7
20260510001725 27 174 8.0 16.1 0.00 0.00 0.00 29 1009.6
20260510001224 27 143 3.2 11.3 0.00 0.00 0.00 28 1009.5
20260510000720 27 155 6.4 8.0 0.00 0.00 0.00 27 1009.5
20260510000218 27 138 4.8 16.1 0.00 0.00 0.00 27 1009.5
20260509235714 27 172 4.8 11.3 0.00 0.00 0.00 27 1009.3
20260509235210 28 157 3.2 6.4 0.00 0.00 0.00 26 1009.5
20260509234706 28 143 4.8 11.3 0.00 0.00 0.00 25 1009.7
20260509234203 28 147 3.2 11.3 0.00 0.00 0.00 26 1009.8
20260509233702 28 182 4.8 12.9 0.00 0.00 0.00 25 1009.8
20260509233159 28 163 3.2 8.0 0.00 0.00 0.00 25 1009.8
20260509232655 28 160 3.2 4.8 0.00 0.00 0.00 26 1009.8
20260509232152 28 217 3.2 12.9 0.00 0.00 0.00 24 1009.9
20260509231648 28 237 3.2 16.1 0.00 0.00 0.00 24 1010.0
20260509231146 29 164 1.6 4.8 0.00 0.00 0.00 25 1009.9
20260509230643 29 138 3.2 9.7 0.00 0.00 0.00 24 1010.0
20260509230140 29 129 11.3 11.3 0.00 0.00 0.00 24 1009.8
20260509225635 29 185 3.2 8.0 0.00 0.00 0.00 22 1009.8
20260509225131 29 180 4.8 11.3 0.00 0.00 0.00 24 1009.9
20260509224626 30 159 6.4 8.0 0.00 0.00 0.00 22 1009.8
20260509224124 30 138 4.8 14.5 0.00 0.00 0.00 23 1009.8
20260509223621 30 186 0.0 16.1 0.00 0.00 0.00 23 1009.6
20260509223118 30 149 4.8 12.9 0.00 0.00 0.00 23 1009.9
20260509222614 30 151 3.2 11.3 0.00 0.00 0.00 22 1009.7
20260509222110 31 3 4.8 9.7 0.00 0.00 0.00 22 1009.8
20260509221606 30 164 0.0 8.0 0.00 0.00 0.00 22 1009.7
20260509221102 30 164 3.2 9.7 0.00 0.00 0.00 22 1009.7
20260509220558 30 186 11.3 16.1 0.00 0.00 0.00 22 1009.7
20260509220055 30 192 4.8 14.5 0.00 0.00 0.00 23 1009.7
20260509215550 30 218 3.2 14.5 0.00 0.00 0.00 23 1009.6
20260509215048 30 142 3.2 14.5 0.00 0.00 0.00 23 1009.7
20260509214545 31 151 4.8 14.5 0.00 0.00 0.00 23 1009.6
20260509214042 31 163 1.6 4.8 0.00 0.00 0.00 24 1009.5
20260509213537 31 237 1.6 8.0 0.00 0.00 0.00 22 1009.8
20260509213035 30 159 6.4 16.1 0.00 0.00 0.00 22 1009.7
20260509212532 30 192 4.8 17.7 0.00 0.00 0.00 23 1009.8
20260509212029 31 139 8.0 11.3 0.00 0.00 0.00 22 1009.7
20260509211524 31 218 3.2 9.7 0.00 0.00 0.00 24 1009.9
20260509211021 31 153 4.8 12.9 0.00 0.00 0.00 24 1009.9
20260509210518 30 211 1.6 14.5 0.00 0.00 0.00 22 1010.0
20260509210014 30 159 1.6 16.1 0.00 0.00 0.00 24 1010.0
20260509205509 30 196 3.2 14.5 0.00 0.00 0.00 22 1010.3
20260509205005 31 174 4.8 11.3 0.00 0.00 0.00 23 1010.2
20260509204501 31 175 3.2 4.8 0.00 0.00 0.00 23 1010.3
20260509203957 30 208 1.6 16.1 0.00 0.00 0.00 24 1010.1
20260509203453 31 200 4.8 11.3 0.00 0.00 0.00 22 1010.4
20260509202951 31 164 6.4 11.3 0.00 0.00 0.00 22 1010.4
20260509202447 31 209 6.4 12.9 0.00 0.00 0.00 22 1010.5
20260509201942 31 211 8.0 9.7 0.00 0.00 0.00 21 1010.7
20260509201437 32 55 0.0 4.8 0.00 0.00 0.00 23 1010.7
20260509200935 30 345 1.6 4.8 0.00 0.00 0.00 23 1010.6
20260509200434 31 255 1.6 9.7 0.00 0.00 0.00 21 1010.8
20260509195931 31 162 1.6 8.0 0.00 0.00 0.00 21 1011.0
20260509195422 31 212 4.8 4.8 0.00 0.00 0.00 21 1010.8
20260509194920 31 255 1.6 8.0 0.00 0.00 0.00 21 1011.1
20260509194417 30 176 3.2 14.5 0.00 0.00 0.00 22 1011.0
20260509193914 30 192 3.2 19.3 0.00 0.00 0.00 22 1011.1
20260509193413 31 164 3.2 11.3 0.00 0.00 0.00 23 1011.1
20260509192910 30 77 0.0 6.4 0.00 0.00 0.00 24 1010.9
20260509192406 31 333 0.0 6.4 0.00 0.00 0.00 23 1011.2
20260509191901 31 155 1.6 4.8 0.00 0.00 0.00 22 1011.3
20260509191357 30 129 4.8 6.4 0.00 0.00 0.00 23 1011.4
20260509190853 30 181 3.2 12.9 0.00 0.00 0.00 22 1011.4
20260509190350 29 207 3.2 16.1 0.00 0.00 0.00 23 1011.7
20260509185848 30 185 1.6 14.5 0.00 0.00 0.00 25 1011.3
20260509185344 30 168 6.4 11.3 0.00 0.00 0.00 24 1011.3
20260509184842 30 162 6.4 12.9 0.00 0.00 0.00 24 1011.4
20260509184339 30 269 0.0 9.7 0.00 0.00 0.00 24 1011.6
20260509183835 30 238 3.2 11.3 0.00 0.00 0.00 25 1011.6
20260509183330 30 204 3.2 8.0 0.00 0.00 0.00 24 1011.6
20260509182827 29 199 0.0 12.9 0.00 0.00 0.00 26 1011.7
20260509182324 30 240 4.8 11.3 0.00 0.00 0.00 24 1011.9
20260509181821 30 186 1.6 6.4 0.00 0.00 0.00 27 1012.0
20260509181318 29 162 4.8 8.0 0.00 0.00 0.00 26 1012.0
20260509180815 28 218 3.2 9.7 0.00 0.00 0.00 25 1011.9
20260509180312 28 324 3.2 17.7 0.00 0.00 0.00 28 1012.1
20260509175808 28 155 3.2 14.5 0.00 0.00 0.00 27 1012.2
20260509175307 28 139 4.8 14.5 0.00 0.00 0.00 28 1012.1
20260509174801 28 267 3.2 3.2 0.00 0.00 0.00 29 1012.4
20260509174256 27 316 1.6 11.3 0.00 0.00 0.00 27 1012.3
20260509173753 27 121 1.6 12.9 0.00 0.00 0.00 29 1012.3
20260509173248 27 109 0.0 11.3 0.00 0.00 0.00 28 1012.4
20260509172744 27 241 3.2 14.5 0.00 0.00 0.00 28 1012.5
20260509172241 27 180 6.4 12.9 0.00 0.00 0.00 27 1012.5
20260509171736 28 209 3.2 12.9 0.00 0.00 0.00 27 1012.6
20260509171233 28 354 6.4 8.0 0.00 0.00 0.00 28 1012.5
20260509170730 28 173 3.2 14.5 0.00 0.00 0.00 27 1012.6
20260509170226 28 227 4.8 9.7 0.00 0.00 0.00 27 1012.9
20260509165724 28 186 3.2 11.3 0.00 0.00 0.00 27 1012.8
20260509165220 28 274 6.4 12.9 0.00 0.00 0.00 27 1012.7
20260509164716 28 180 3.2 16.1 0.00 0.00 0.00 27 1012.9
20260509164212 28 139 1.6 9.7 0.00 0.00 0.00 27 1012.9
20260509163709 27 159 1.6 9.7 0.00 0.00 0.00 29 1012.8
20260509163206 28 10 3.2 16.1 0.00 0.00 0.00 28 1012.9
20260509162703 27 182 6.4 12.9 0.00 0.00 0.00 30 1012.9
20260509162159 27 169 4.8 11.3 0.00 0.00 0.00 30 1012.9
20260509161654 27 140 4.8 12.9 0.00 0.00 0.00 33 1012.9
20260509161150 26 147 9.7 12.9 0.00 0.00 0.00 34 1013.0
20260509160646 26 151 1.6 14.5 0.00 0.00 0.00 36 1012.9
20260509160142 26 142 4.8 9.7 0.00 0.00 0.00 35 1012.8
20260509155638 26 129 3.2 6.4 0.00 0.00 0.00 38 1012.7
20260509155134 25 149 3.2 11.3 0.00 0.00 0.00 40 1012.8
20260509154630 25 180 1.6 8.0 0.00 0.00 0.00 40 1013.0
20260509154127 25 99 0.0 6.4 0.00 0.00 0.00 40 1013.0
20260509153625 26 213 3.2 11.3 0.00 0.00 0.00 38 1012.7
20260509153121 26 186 0.0 6.4 0.00 0.00 0.00 37 1013.0
20260509152617 25 247 3.2 4.8 0.00 0.00 0.00 40 1012.9
20260509152115 25 178 3.2 9.7 0.00 0.00 0.00 41 1012.8
20260509151611 24 241 0.0 11.3 0.00 0.00 0.00 42 1012.9
20260509151109 23 160 4.8 12.9 0.00 0.00 0.00 41 1012.8
20260509150606 23 199 8.0 9.7 0.00 0.00 0.00 42 1012.8
20260509150104 23 181 3.2 8.0 0.00 0.00 0.00 46 1012.6
20260509145559 23 218 4.8 9.7 0.00 0.00 0.00 47 1012.5
20260509145055 23 161 4.8 6.4 0.00 0.00 0.00 49 1012.6
20260509144552 22 268 1.6 4.8 0.00 0.00 0.00 51 1012.5
20260509144049 22 176 1.6 6.4 0.00 0.00 0.00 52 1012.5
20260509143546 22 131 0.0 4.8 0.00 0.00 0.00 54 1012.5
20260509143038 21 133 4.8 6.4 0.00 0.00 0.00 54 1012.6
20260509142533 21 15 3.2 6.4 0.00 0.00 0.00 55 1012.5
20260509142029 20 134 4.8 12.9 0.00 0.00 0.00 57 1012.6
20260509141526 21 202 8.0 11.3 0.00 0.00 0.00 56 1012.4
20260509141023 20 215 4.8 6.4 0.00 0.00 0.00 58 1012.6
20260509140519 20 144 4.8 8.0 0.00 0.00 0.00 58 1012.7
20260509140018 20 127 4.8 8.0 0.00 0.00 0.00 59 1012.4
20260509135514 20 156 0.0 6.4 0.00 0.00 0.00 60 1012.4
20260509135012 19 103 0.0 6.4 0.00 0.00 0.00 61 1012.3
20260509134509 18 184 4.8 8.0 0.00 0.00 0.00 63 1012.3
20260509134007 18 152 4.8 6.4 0.00 0.00 0.00 65 1012.4
20260509133503 17 160 4.8 6.4 0.00 0.00 0.00 67 1012.4
20260509133001 17 117 0.0 6.4 0.00 0.00 0.00 69 1012.3
20260509132459 16 76 0.0 6.4 0.00 0.00 0.00 72 1012.5
20260509131955 15 37 1.6 4.8 0.00 0.00 0.00 73 1012.4
20260509131453 15 152 1.6 4.8 0.00 0.00 0.00 75 1012.6
20260509130949 15 25 0.0 11.3 0.00 0.00 0.00 76 1012.4
20260509130445 14 136 0.0 4.8 0.00 0.00 0.00 78 1012.3
20260509125942 13 84 0.0 4.8 0.00 0.00 0.00 79 1012.3
20260509125438 13 67 1.6 4.8 0.00 0.00 0.00 80 1012.2
20260509124934 13 151 1.6 4.8 0.00 0.00 0.00 81 1012.4
20260509124432 12 158 3.2 4.8 0.00 0.00 0.00 82 1012.2
20260509123929 12 127 3.2 4.8 0.00 0.00 0.00 83 1012.2
20260509123426 12 86 0.0 3.2 0.00 0.00 0.00 84 1012.0
20260509122922 12 246 0.0 3.2 0.00 0.00 0.00 86 1012.0
20260509122419 11 124 1.6 3.2 0.00 0.00 0.00 88 1012.1
20260509121916 10 116 0.0 3.2 0.00 0.00 0.00 89 1012.1
20260509121413 10 174 0.0 4.8 0.00 0.00 0.00 89 1012.1